Regional Weather Roundup
Issued by NWS Raleigh/Durham, NC

Current Version | Previous Version | Graphics & Text | Print | Product List | Glossary On
Versions: 1 2 3 4 5 6 7 8 9 10 11 12 13 14 15 16 17 18 19 20 21 22 23 24 25 26 27 28 29
000
ASUS42 KRAH 250910
RWRRAH
NORTH CAROLINA WEATHER ROUNDUP
NATIONAL WEATHER SERVICE RALEIGH NC
500 AM EDT SAT OCT 25 2014

NOTE: "FAIR" INDICATES FEW OR NO CLOUDS BELOW 12,000 FEET WITH NO
SIGNIFICANT WEATHER AND/OR OBSTRUCTIONS TO VISIBILITY.

NCZ001-053-055-056-065-067-251000-
WESTERN NORTH CAROLINA

CITY           SKY/WX    TMP DP  RH WIND       PRES   REMARKS
ASHEVILLE      CLEAR     42  37  82 CALM      30.06F
JEFFERSON      CLEAR     46  28  49 CALM      30.03F
MORGANTON      CLEAR     35  35 100 CALM      30.06S FOG
HICKORY        CLEAR     44  40  85 NW3       30.00F
RUTHERFORDTON  CLEAR     42  39  88 N3        30.02S
MOUNT AIRY     CLEAR     46  37  68 CALM      30.02S
BOONE          NOT AVBL
$$

NCZ021-022-025-041-071-084-088-251000-
CENTRAL NORTH CAROLINA

CITY           SKY/WX    TMP DP  RH WIND       PRES   REMARKS
CHARLOTTE      CLEAR     45  40  82 N6        30.01S
GREENSBORO     CLEAR     42  38  85 CALM      29.99R
WINSTON-SALEM  CLEAR     46  33  60 NW5       30.00S
RALEIGH-DURHAM PTCLDY    43  41  93 CALM      29.97S
FORT BRAGG     CLEAR     46  44  93 CALM      29.97R
FAYETTEVILLE   CLEAR     45  43  93 S7        29.97R
BURLINGTON     CLEAR     41  38  89 SW5       29.99R
LAURINBURG     CLEAR     40  40 100 CALM      29.99S FOG
$$

NCZ011-015-027-028-043-044-047-080-103-251000-
NORTHEASTERN NORTH CAROLINA

CITY           SKY/WX    TMP DP  RH WIND       PRES   REMARKS
ROCKY MT-WILSO CLEAR     42  41  96 SW3       29.96S
GREENVILLE     MIX PCPN  43  43 100 CALM      29.98R
WASHINGTON     CLEAR     45  44  97 CALM      29.96R
ELIZABETH CITY CLEAR     50  44  80 NW7       29.95S
MANTEO         CLEAR     54  49  83 NW3       29.95R
CAPE HATTERAS  CLEAR     52  51  97 N3        29.95R
$$

NCZ078-087-090-091-093-098-101-251000-
SOUTHEASTERN NORTH CAROLINA

CITY           SKY/WX    TMP DP  RH WIND       PRES   REMARKS
LUMBERTON      CLEAR     43  40  89 CALM      29.98R
GOLDSBORO      CLEAR     47  46  98 CALM      29.94F
KINSTON        CLEAR     43  42  97 CALM      29.96F
KENANSVILLE    CLEAR     41  41 100 CALM      29.97S FOG
NEW BERN       CLEAR     48  45  89 S3        29.97S
CHERRY POINT   CLEAR     47  45  93 CALM      29.97S
BEAUFORT       CLEAR     52  50  93 CALM      29.96S
JACKSONVILLE   CLEAR     46  45  96 CALM      29.96S
WILMINGTON     CLEAR     46  45  96 CALM      29.96S
$$




USA.gov is the U.S. government's official web portal to all federal, state and local government web resources and services.